Home > Weather > Maceió > Past weeks

Flag for Brazil Past Weather in Maceió, Alagoas, Brazil — Yesterday and Last 2 Weeks

Now
72 °F

Passing clouds.


Feels Like: 65 °F
Forecast: 75 / 78 °F
Wind: 1 mph from West

Location: Maceio Aeroporto

Current Time: Jul 2, 2016 at 4:37:46 AM

Latest Report: Jul 2, 2016 at 4:00 AM


Visibility: N/A

Pressure: 30.04 "Hg

Humidity: 100%

Dew Point: 72 °F

Location of MaceióLocation

Past Weather in Maceió — Graph

°F

Maceió Temperature Yesterday

Maximum temperature yesterday: 79 °F (at 11:00 AM)
Minimum temperature yesterday: 68 °F (at 5:00 AM)
Average temperature yesterday: 73 °F

High & Low Weather Summary for the Past Weeks

 TemperatureHumidityPressure
High82 °F (Jun 17, 2:00 PM)100% (Jun 17, 3:00 AM)30.12 "Hg (Jun 17, 3:00 AM)
Low63 °F (Jun 29, 3:00 AM)45% (Jun 29, 1:00 PM)29.68 "Hg (Jun 18, 9:00 AM)
Average73 °F82%30.07 "Hg
* Reported Jun 17 3:00 AM — Jul 2 3:00 AM, Maceió, Weather by CustomWeather, © 2016

Note: Actual official high and low records may vary slightly from our data, if they occured in-between our weather recording intervals... More about our weather records

Advertising

Maceió Weather History for the Previous 24 Hours

Scroll right to see more
 ConditionsComfort  
Time TempWeatherWind HumidityBarometerVisibility
3:00 AM
Sat, Jul 2
72 °FPassing clouds.2 mph94%30.04 "HgN/A
2:00 AM72 °FPassing clouds.2 mph94%30.07 "HgN/A
1:00 AM73 °FPassing clouds.5 mph94%30.07 "HgN/A
12:00 AM72 °FLight rain. Passing clouds.1 mph100%30.09 "Hg2 mi
11:00 PM
Fri, Jul 1
72 °FPassing clouds.2 mph88%30.09 "HgN/A
10:00 PM75 °FPassing clouds.7 mph89%30.09 "HgN/A
9:00 PM73 °FPassing clouds.7 mph89%30.09 "HgN/A
8:00 PM72 °FPassing clouds.9 mph83%30.09 "HgN/A
7:00 PM72 °FPassing clouds.9 mph83%30.07 "HgN/A
6:00 PM73 °FPassing clouds.9 mph78%30.07 "HgN/A
5:00 PM73 °FScattered clouds.12 mph78%30.04 "HgN/A
4:00 PM75 °FScattered clouds.14 mph78%30.04 "HgN/A
3:00 PM77 °FBroken clouds.18 mph74%30.04 "HgN/A
2:00 PM77 °FScattered clouds.13 mph74%30.04 "HgN/A
1:00 PM75 °FScattered clouds.8 mph78%30.07 "HgN/A
12:00 PM75 °FScattered showers. Broken clouds.12 mph78%N/AN/A
11:00 AM79 °FScattered showers. Partly sunny.10 mph70%30.09 "HgN/A
10:00 AM77 °FPartly sunny.14 mph69%30.09 "HgN/A
9:00 AM77 °FScattered clouds.10 mph69%30.12 "HgN/A
8:00 AM75 °FPartly sunny.8 mph78%30.09 "HgN/A
7:00 AM72 °FPartly sunny.2 mph88%30.09 "HgN/A
6:00 AM70 °FPassing clouds.6 mph88%30.07 "HgN/A
5:00 AM68 °FClear.6 mph94%30.07 "Hg10 mi
4:00 AM70 °FPassing clouds.3 mph88%30.04 "HgN/A
Weather by CustomWeather, © 2016

See weather overviewHow to use our weather pages